Weather History for KHST - September, 2013

Change the Weather History Date:

Thursday, September 5, 2013

  Actual Average Record
Temperature  
Mean Temperature 83 °F -  
Max Temperature 88 °F 89 °F 93 °F (1944)
Min Temperature 78 °F 72 °F 67 °F (1943)
Cooling Degree Days 18    
Growing Degree Days 33 (Base 50)    
Moisture  
Dew Point 77 °F    
Average Humidity 80    
Maximum Humidity 91    
Minimum Humidity 69    
Precipitation  
Precipitation 0.08 in - - ()
Sea Level Pressure  
Sea Level Pressure 30.04 in    
Wind  
Wind Speed 8 mph (East)    
Max Wind Speed 15 mph    
Max Gust Speed 23 mph    
Visibility 10 miles    
Events Rain    
Averages and records for this station are not official NWS values.
T = Trace of Precipitation, MM = Missing Value Source: NWS Daily Summary

Daily Weather History Graph

Daily Weather History Graph

Search for Another Location

Airport or City:

Trip Planner

Search our weather history database for the weather conditions in past years. The results will help you decide how hot, cold, wet, or windy it might be!

Date:

Astronomy

Sep. 05, 2013 Rise Set
Actual Time 7:03 AM EDT 7:36 PM EDT
Civil Twilight 6:40 AM EDT 7:59 PM EDT
Nautical Twilight 6:13 AM EDT 8:26 PM EDT
Astronomical Twilight 5:45 AM EDT 8:53 PM EDT
Moon 7:07 AM EDT (9/5) 7:36 PM EDT (9/5)
Length of Visible Light 13h 18m
Length of Day
12h 32m
New Moon, 0% of the Moon is Illuminated
Sep 5
New Moon
Sep 12
First Quarter
Sep 19
Full
Sep 26
Last Quarter
Oct 4
New

Hourly Weather History & Observations

Time (EDT) Temp. Heat Index Dew Point Humidity Pressure Visibility Wind Dir Wind Speed Gust Speed Precip Events Conditions
12:58 AM 84.2 °F 94.1 °F 77.0 °F 79% 30.05 in 10.0 mi East 10.4 mph - N/A   Partly Cloudy
1:58 AM 80.6 °F 87.1 °F 77.0 °F 89% 30.03 in 10.0 mi East 4.6 mph - N/A   Partly Cloudy
2:14 AM 78.8 °F - 73.4 °F 83% 30.02 in 8.0 mi East 5.8 mph 23.0 mph N/A Rain Light Rain
2:19 AM 78.8 °F - 73.4 °F 83% 30.02 in 10.0 mi ENE 4.6 mph - N/A   Light Drizzle
2:21 AM 78.8 °F - 73.4 °F 83% 30.02 in 10.0 mi ENE 4.6 mph - N/A   Partly Cloudy
2:58 AM 79.2 °F - 76.5 °F 91% 30.02 in 10.0 mi East 5.8 mph - 0.01 in   Clear
3:58 AM 81.1 °F 88.7 °F 77.7 °F 89% 30.01 in 10.0 mi East 9.2 mph - N/A   Clear
4:58 AM 80.8 °F 87.1 °F 76.1 °F 86% 30.01 in 10.0 mi East 8.1 mph - N/A   Clear
5:58 AM 81.9 °F 88.5 °F 75.0 °F 80% 30.01 in 10.0 mi East 6.9 mph - N/A   Clear
6:58 AM 81.5 °F 88.5 °F 76.3 °F 84% 30.03 in 10.0 mi East 5.8 mph - N/A   Clear
7:58 AM 82.4 °F 90.1 °F 75.9 °F 81% 30.04 in 10.0 mi ESE 5.8 mph - N/A   Clear
8:58 AM 83.5 °F 93.3 °F 77.5 °F 82% 30.05 in 10.0 mi East 6.9 mph - N/A   Partly Cloudy
9:58 AM 86.0 °F 96.4 °F 76.5 °F 73% 30.06 in 10.0 mi ESE 12.7 mph - N/A   Partly Cloudy
10:58 AM 87.4 °F 98.7 °F 76.5 °F 70% 30.08 in 10.0 mi East 11.5 mph - N/A   Clear
11:58 AM 88.0 °F 99.6 °F 76.8 °F 69% 30.08 in 10.0 mi East 11.5 mph - N/A   Clear
12:42 PM 87.8 °F 102.5 °F 78.8 °F 75% 30.07 in 6.0 mi SE 15.0 mph - N/A Rain Light Rain
12:47 PM 84.2 °F 94.1 °F 77.0 °F 79% 30.06 in 2.0 mi ENE 8.1 mph - N/A Rain Heavy Rain
12:57 PM 84.2 °F 96.1 °F 78.8 °F 84% 30.06 in 10.0 mi East 8.1 mph - N/A   Partly Cloudy
12:58 PM 83.5 °F 94.0 °F 78.1 °F 84% 30.07 in 10.0 mi East 8.1 mph - 0.07 in   Partly Cloudy
1:58 PM 88.0 °F 100.7 °F 77.7 °F 71% 30.05 in 10.0 mi ENE 12.7 mph - 0.00 in   Partly Cloudy
2:12 PM 86.0 °F 99.3 °F 78.8 °F 79% 30.04 in 10.0 mi ESE 12.7 mph - N/A   Light Drizzle
2:23 PM 84.2 °F 94.1 °F 77.0 °F 79% 30.04 in 10.0 mi East 5.8 mph - N/A   Partly Cloudy
2:58 PM 87.8 °F 101.3 °F 78.1 °F 73% 30.04 in 10.0 mi East 11.5 mph - 0.00 in   Partly Cloudy
3:58 PM 87.1 °F 98.3 °F 76.6 °F 71% 30.02 in 10.0 mi East 10.4 mph - N/A   Clear
4:58 PM 86.2 °F 96.4 °F 76.1 °F 72% 30.01 in 10.0 mi ENE 9.2 mph - N/A   Clear
5:58 PM 85.5 °F 95.0 °F 76.1 °F 73% 30.01 in 10.0 mi East 10.4 mph - N/A   Clear
6:58 PM 84.9 °F 94.5 °F 76.3 °F 75% 30.02 in 10.0 mi ENE 8.1 mph - N/A   Clear
7:58 PM 83.5 °F 92.6 °F 76.8 °F 80% 30.02 in 10.0 mi East 6.9 mph - N/A   Clear
8:58 PM 83.3 °F 92.1 °F 76.5 °F 80% 30.03 in 10.0 mi ENE 6.9 mph - N/A   Clear
9:55 PM 82.4 °F 90.9 °F 77.0 °F 84% 30.04 in 10.0 mi ENE 6.9 mph - N/A   Clear
10:58 PM 82.6 °F 91.1 °F 76.8 °F 83% 30.05 in 10.0 mi ENE 6.9 mph - N/A   Clear
11:58 PM 82.8 °F 91.0 °F 76.5 °F 81% 30.04 in 10.0 mi ENE 5.8 mph - N/A   Partly Cloudy